LAPAN-A3

Last updated on Thu Oct 30 2025 00:02:31 GMT+0000 (Coordinated Universal Time)

1 41603U 16040E 25302.52056476 .00005285 00000+0 17830-3 0 9993 2 41603 97.1434 301.7017 0012551 117.1996 243.0526 15.31037059519495
UTC large
Height (km)
Speed (km/s)
/
Latitude / Longitude
Inclination (degrees)
Orbital Period (minutes)
Azimuth
Elevation
Range (km)
Doppler Factor

Next 0 passes for location: London (51.5072 / 0.1276)

Sorry there are no passes over London.